N7BDR Weather Reports


Display with metric or nautical units.
time (UTC)temp
F
wind
direction
speed
MPH
gust
MPH
rain 1hr
in
rain 24hr
in
rain mn
in
humidity
%
barometer
mb
20260903212509 86 265 7.0 21.0 0.00 0.00 0.00 12 1003.2
20260903212003 86 294 5.0 21.0 0.00 0.00 0.00 12 1003.1
20260903211451 86 171 5.0 21.0 0.00 0.00 0.00 12 1003.0
20260903210945 86 270 5.0 12.0 0.00 0.00 0.00 13 1003.3
20260903210436 86 249 4.0 13.0 0.00 0.00 0.00 13 1003.5
20260903205944 86 184 4.0 13.0 0.00 0.00 0.00 13 1003.6
20260903205432 86 224 4.0 16.0 0.00 0.00 0.00 13 1003.5
20260903204930 85 161 6.0 16.0 0.00 0.00 0.00 13 1003.6
20260903204434 85 185 6.0 16.0 0.00 0.00 0.00 13 1003.8
20260903203917 85 171 5.0 16.0 0.00 0.00 0.00 13 1003.8
20260903202751 85 195 6.0 19.0 0.00 0.00 0.00 14 1004.1
20260903200948 85 216 4.0 17.0 0.00 0.00 0.00 14 1004.3
20260903195157 84 176 6.0 17.0 0.00 0.00 0.00 14 1004.5
20260903194648 85 266 4.0 16.0 0.00 0.00 0.00 14 1004.4
20260903194143 84 110 4.0 16.0 0.00 0.00 0.00 15 1004.6
20260903193625 84 213 3.0 14.0 0.00 0.00 0.00 14 1004.6
20260903193108 84 201 4.0 14.0 0.00 0.00 0.00 15 1004.6
20260903192617 84 158 5.0 14.0 0.00 0.00 0.00 15 1004.8
20260903190844 83 268 5.0 18.0 0.00 0.00 0.00 16 1005.1
20260903190339 83 255 5.0 18.0 0.00 0.00 0.00 14 1005.1
20260903184600 81 141 6.0 17.0 0.00 0.00 0.00 15 1005.3
20260903184057 81 204 5.0 17.0 0.00 0.00 0.00 14 1005.5
20260903183543 81 215 6.0 17.0 0.00 0.00 0.00 23 1005.7
20260903182433 81 149 5.0 13.0 0.00 0.00 0.00 15 1005.6
20260903181922 81 244 4.0 13.0 0.00 0.00 0.00 15 1005.9
20260903181413 81 264 3.0 13.0 0.00 0.00 0.00 15 1006.0
20260903180902 81 227 3.0 12.0 0.00 0.00 0.00 15 1006.1
20260903180402 81 261 4.0 14.0 0.00 0.00 0.00 16 1006.2
20260903175851 81 152 4.0 14.0 0.00 0.00 0.00 15 1006.2
20260903175358 81 106 5.0 14.0 0.00 0.00 0.00 17 1006.3
20260903174859 81 232 4.0 14.0 0.00 0.00 0.00 16 1006.1
20260903174347 81 155 3.0 13.0 0.00 0.00 0.00 17 1006.1
20260903173839 80 203 4.0 14.0 0.00 0.00 0.00 17 1006.1
20260903173348 80 186 5.0 14.0 0.00 0.00 0.00 17 1006.2
20260903172844 79 122 5.0 17.0 0.00 0.00 0.00 16 1006.2
20260903171105 79 187 4.0 17.0 0.00 0.00 0.00 19 1006.4
20260903170555 78 216 4.0 17.0 0.00 0.00 0.00 18 1006.5
20260903170037 78 315 4.0 17.0 0.00 0.00 0.00 18 1006.5
20260903165538 78 159 5.0 17.0 0.00 0.00 0.00 18 1006.6
20260903165040 77 225 5.0 17.0 0.00 0.00 0.00 16 1006.5
20260903164530 77 144 4.0 13.0 0.00 0.00 0.00 18 1006.6
20260903164017 77 182 5.0 13.0 0.00 0.00 0.00 18 1006.6
20260903163523 77 217 5.0 13.0 0.00 0.00 0.00 18 1006.6
20260903163009 76 201 5.0 12.0 0.00 0.00 0.00 18 1006.6
20260903162511 76 200 4.0 12.0 0.00 0.00 0.00 18 1006.6
20260903162006 76 202 3.0 12.0 0.00 0.00 0.00 19 1006.6
20260903161511 76 279 3.0 12.0 0.00 0.00 0.00 19 1006.5
20260903160953 75 166 2.0 11.0 0.00 0.00 0.00 19 1006.5
20260903155156 74 285 0.0 9.0 0.00 0.00 0.00 20 1006.6
20260903154019 71 337 0.0 1.0 0.00 0.00 0.00 32 1006.7
20260903153502 72 316 0.0 1.0 0.00 0.00 0.00 31 1006.8
20260903152332 70 329 0.0 0.0 0.00 0.00 0.00 32 1007.0
20260903151823 69 329 0.0 0.0 0.00 0.00 0.00 34 1007.0
20260903150639 69 341 0.0 0.0 0.00 0.00 0.00 35 1007.0
20260903144902 70 304 0.0 0.0 0.00 0.00 0.00 35 1007.0
20260903144401 70 305 0.0 0.0 0.00 0.00 0.00 34 1007.0
20260903143851 69 305 0.0 0.0 0.00 0.00 0.00 35 1007.0
20260903143358 67 304 0.0 0.0 0.00 0.00 0.00 37 1007.1
20260903142901 65 304 0.0 0.0 0.00 0.00 0.00 40 1007.1
20260903142408 63 305 0.0 0.0 0.00 0.00 0.00 42 1007.2
20260903141904 63 305 0.0 0.0 0.00 0.00 0.00 44 1007.1
20260903140749 63 279 0.0 0.0 0.00 0.00 0.00 45 1007.0
20260903140231 62 279 0.0 0.0 0.00 0.00 0.00 46 1007.0
20260903135714 61 279 0.0 0.0 0.00 0.00 0.00 47 1006.9
20260903134548 58 279 0.0 0.0 0.00 0.00 0.00 50 1006.7
20260903134042 58 279 0.0 0.0 0.00 0.00 0.00 50 1006.8
20260903133542 58 279 0.0 0.0 0.00 0.00 0.00 50 1006.7
20260903133032 57 264 0.0 1.0 0.00 0.00 0.00 47 1006.5
20260903132537 57 270 0.0 0.0 0.00 0.00 0.00 49 1006.4
20260903132022 57 267 0.0 1.0 0.00 0.00 0.00 48 1006.4
20260903131507 57 272 0.0 1.0 0.00 0.00 0.00 49 1006.3
20260903131008 56 259 0.0 2.0 0.00 0.00 0.00 52 1006.2
20260903130455 55 268 0.0 0.0 0.00 0.00 0.00 54 1006.2
20260903125959 54 272 0.0 0.0 0.00 0.00 0.00 56 1006.1
20260903125457 54 272 0.0 0.0 0.00 0.00 0.00 58 1006.1
20260903124944 54 272 0.0 0.0 0.00 0.00 0.00 58 1006.0
20260903124431 54 272 0.0 0.0 0.00 0.00 0.00 57 1006.1
20260903123923 54 272 0.0 0.0 0.00 0.00 0.00 57 1006.1
20260903123410 54 272 0.0 0.0 0.00 0.00 0.00 56 1006.1
20260903122907 55 272 0.0 0.0 0.00 0.00 0.00 56 1006.0
20260903122407 55 272 0.0 0.0 0.00 0.00 0.00 55 1005.9
20260903121850 55 272 0.0 0.0 0.00 0.00 0.00 55 1005.8
20260903121340 55 272 0.0 0.0 0.00 0.00 0.00 54 1005.8
20260903120846 55 272 0.0 0.0 0.00 0.00 0.00 54 1005.8
20260903120344 56 272 0.0 0.0 0.00 0.00 0.00 54 1005.8
20260903115854 56 272 0.0 0.0 0.00 0.00 0.00 52 1005.7
20260903115356 55 272 0.0 0.0 0.00 0.00 0.00 52 1005.7
20260903114904 55 272 0.0 0.0 0.00 0.00 0.00 52 1005.7
20260903114346 56 272 0.0 0.0 0.00 0.00 0.00 52 1005.7
20260903113844 56 272 0.0 0.0 0.00 0.00 0.00 52 1005.7
20260903113333 56 272 0.0 0.0 0.00 0.00 0.00 50 1005.7
20260903112824 57 272 0.0 0.0 0.00 0.00 0.00 49 1005.7
20260903112328 57 272 0.0 0.0 0.00 0.00 0.00 48 1005.6
20260903111224 57 272 0.0 0.0 0.00 0.00 0.00 48 1005.5
20260903110733 57 272 0.0 0.0 0.00 0.00 0.00 48 1005.5
20260903110241 58 272 0.0 0.0 0.00 0.00 0.00 47 1005.5
20260903105725 58 272 0.0 0.0 0.00 0.00 0.00 46 1005.5
20260903105206 58 272 0.0 0.0 0.00 0.00 0.00 45 1005.4
20260903104706 58 272 0.0 1.0 0.00 0.00 0.00 45 1005.3
20260903104150 57 277 0.0 0.0 0.00 0.00 0.00 49 1005.3
20260903103653 57 276 0.0 0.0 0.00 0.00 0.00 49 1005.4
20260903103146 58 275 0.0 0.0 0.00 0.00 0.00 49 1005.4
20260903102634 58 275 0.0 0.0 0.00 0.00 0.00 49 1005.4
20260903101511 59 275 0.0 0.0 0.00 0.00 0.00 46 1005.5
20260903101015 60 275 0.0 0.0 0.00 0.00 0.00 44 1005.3
20260903100501 60 275 0.0 0.0 0.00 0.00 0.00 44 1005.2
20260903100006 60 275 0.0 0.0 0.00 0.00 0.00 44 1005.1
20260903095450 60 273 0.0 0.0 0.00 0.00 0.00 44 1005.0
20260903094333 61 273 0.0 0.0 0.00 0.00 0.00 39 1004.9
20260903093842 61 274 0.0 0.0 0.00 0.00 0.00 40 1004.9
20260903093328 62 273 0.0 0.0 0.00 0.00 0.00 39 1004.8
20260903092811 62 268 0.0 2.0 0.00 0.00 0.00 38 1004.8
20260903092315 62 323 0.0 2.0 0.00 0.00 0.00 37 1004.7
20260903091819 61 269 0.0 3.0 0.00 0.00 0.00 40 1004.7
20260903090657 61 276 0.0 0.0 0.00 0.00 0.00 39 1004.6
20260903085521 62 276 0.0 0.0 0.00 0.00 0.00 40 1004.5
20260903085014 62 276 0.0 0.0 0.00 0.00 0.00 40 1004.6
20260903084523 62 276 0.0 0.0 0.00 0.00 0.00 40 1004.6
20260903084006 62 276 0.0 0.0 0.00 0.00 0.00 39 1004.7
20260903083504 63 276 0.0 0.0 0.00 0.00 0.00 39 1004.7
20260903082945 63 276 0.0 0.0 0.00 0.00 0.00 39 1004.7
20260903082438 64 276 0.0 0.0 0.00 0.00 0.00 39 1004.7
20260903081937 64 276 0.0 0.0 0.00 0.00 0.00 37 1004.7
20260903081419 64 276 0.0 0.0 0.00 0.00 0.00 36 1004.7
20260903080902 65 275 0.0 0.0 0.00 0.00 0.00 35 1004.6
20260903080407 65 291 0.0 0.0 0.00 0.00 0.00 36 1004.7
20260903075215 64 283 0.0 0.0 0.00 0.00 0.00 37 1004.6
20260903074724 64 284 0.0 0.0 0.00 0.00 0.00 37 1004.5
20260903074212 65 283 0.0 0.0 0.00 0.00 0.00 36 1004.5
20260903073709 65 287 0.0 0.0 0.00 0.00 0.00 35 1004.3
20260903073209 65 288 0.0 0.0 0.00 0.00 0.00 35 1004.3
20260903072712 66 277 0.0 0.0 0.00 0.00 0.00 35 1004.2
20260903070909 66 279 0.0 0.0 0.00 0.00 0.00 35 1004.0
20260903070415 66 277 0.0 0.0 0.00 0.00 0.00 34 1004.0
20260903065905 66 277 0.0 0.0 0.00 0.00 0.00 34 1003.9
20260903065411 66 276 0.0 0.0 0.00 0.00 0.00 34 1003.9
20260903064902 67 276 0.0 0.0 0.00 0.00 0.00 33 1004.0
20260903064351 67 285 0.0 0.0 0.00 0.00 0.00 33 1003.9
20260903061940 68 329 0.0 2.0 0.00 0.00 0.00 30 1003.7
20260903061421 69 282 0.0 0.0 0.00 0.00 0.00 29 1003.7
20260903060927 69 273 0.0 0.0 0.00 0.00 0.00 28 1003.6
20260903055828 69 307 0.0 4.0 0.00 0.00 0.00 26 1003.5
20260903055322 69 285 0.0 0.0 0.00 0.00 0.00 28 1003.3
20260903054805 69 285 0.0 0.0 0.00 0.00 0.00 27 1003.3
20260903054315 69 285 0.0 0.0 0.00 0.00 0.00 28 1003.3
20260903053757 69 275 0.0 0.0 0.00 0.00 0.00 27 1003.3
20260903052627 70 275 0.0 0.0 0.00 0.00 0.00 26 1003.3
20260903052111 70 275 0.0 0.0 0.00 0.00 0.00 25 1003.3
20260903051552 70 275 0.0 0.0 0.00 0.00 0.00 25 1003.4
20260903051042 71 275 0.0 1.0 0.00 0.00 0.00 25 1003.4
20260903050541 71 275 0.0 1.0 0.00 0.00 0.00 24 1003.4
20260903050036 71 276 0.0 0.0 0.00 0.00 0.00 26 1003.3
20260903045520 71 274 0.0 0.0 0.00 0.00 0.00 25 1003.2
20260903045013 71 274 0.0 0.0 0.00 0.00 0.00 26 1003.3
20260903044512 71 274 0.0 0.0 0.00 0.00 0.00 25 1003.3
20260903044012 71 274 0.0 0.0 0.00 0.00 0.00 25 1003.5
20260903043505 71 274 0.0 0.0 0.00 0.00 0.00 24 1003.5
20260903042951 72 274 0.0 0.0 0.00 0.00 0.00 23 1003.5
20260903042449 72 272 0.0 0.0 0.00 0.00 0.00 24 1003.3
20260903041935 72 270 0.0 1.0 0.00 0.00 0.00 24 1003.3
20260903041426 72 274 0.0 0.0 0.00 0.00 0.00 24 1003.3
20260903040921 72 269 0.0 2.0 0.00 0.00 0.00 25 1003.3
20260903040423 72 258 0.0 0.0 0.00 0.00 0.00 25 1003.3
20260903034706 73 272 0.0 0.0 0.00 0.00 0.00 24 1002.9
20260903034202 73 270 0.0 2.0 0.00 0.00 0.00 24 1002.9
20260903033643 73 272 0.0 0.0 0.00 0.00 0.00 23 1002.9
20260903032507 73 277 0.0 2.0 0.00 0.00 0.00 23 1002.8
20260903031956 73 272 0.0 2.0 0.00 0.00 0.00 24 1002.8
20260903031459 73 273 0.0 2.0 0.00 0.00 0.00 24 1002.6
20260903031004 73 287 0.0 0.0 0.00 0.00 0.00 24 1002.6
20260903030456 73 282 0.0 0.0 0.00 0.00 0.00 24 1002.6
20260903025955 73 269 0.0 1.0 0.00 0.00 0.00 24 1002.5
20260903025450 73 279 0.0 0.0 0.00 0.00 0.00 24 1002.5
20260903024931 74 279 0.0 0.0 0.00 0.00 0.00 25 1002.4
20260903024425 74 279 0.0 0.0 0.00 0.00 0.00 24 1002.3
20260903023928 74 279 0.0 0.0 0.00 0.00 0.00 24 1002.2
20260903023430 75 272 0.0 1.0 0.00 0.00 0.00 24 1002.1
20260903022935 75 268 0.0 0.0 0.00 0.00 0.00 23 1002.2
20260903022438 75 263 0.0 0.0 0.00 0.00 0.00 22 1002.2
20260903021925 76 317 0.0 1.0 0.00 0.00 0.00 22 1002.2
20260903021426 76 291 0.0 2.0 0.00 0.00 0.00 22 1002.0
20260903020910 76 276 0.0 0.0 0.00 0.00 0.00 23 1002.1
20260903020352 77 317 0.0 0.0 0.00 0.00 0.00 22 1001.9
20260903015837 77 276 1.0 0.0 0.00 0.00 0.00 22 1001.9
20260903015329 78 261 4.0 11.0 0.00 0.00 0.00 21 1001.9
20260903014825 79 337 2.0 10.0 0.00 0.00 0.00 20 1001.9
20260903014324 80 335 1.0 5.0 0.00 0.00 0.00 18 1002.0
20260903013822 81 272 0.0 4.0 0.00 0.00 0.00 15 1001.9
20260903013306 81 272 0.0 6.0 0.00 0.00 0.00 15 1001.9
20260903012808 81 275 0.0 6.0 0.00 0.00 0.00 15 1001.9
20260903012302 81 271 0.0 6.0 0.00 0.00 0.00 14 1002.0
20260903011800 82 251 1.0 6.0 0.00 0.00 0.00 14 1002.0
20260903011259 82 262 2.0 10.0 0.00 0.00 0.00 13 1002.0
20260903010747 82 253 3.0 10.0 0.00 0.00 0.00 13 1002.1
20260903010238 82 267 3.0 10.0 0.00 0.00 0.00 14 1002.1
20260903005723 83 234 3.0 10.0 0.00 0.00 0.00 13 1002.1
20260903005214 83 176 3.0 10.0 0.00 0.00 0.00 14 1002.2
20260903003430 83 265 3.0 14.0 0.00 0.00 0.00 14 1002.2
20260903002937 83 227 4.0 14.0 0.00 0.00 0.00 14 1002.2
20260903002418 83 259 4.0 14.0 0.00 0.00 0.00 14 1002.3
20260903001909 83 253 4.0 14.0 0.00 0.00 0.00 13 1002.2
20260903001403 83 244 4.0 11.0 0.00 0.00 0.00 14 1002.3
20260903000243 83 256 3.0 11.0 0.00 0.00 0.00 13 1002.3
20260902235114 84 223 3.0 14.0 0.00 0.00 0.00 14 1002.2
20260902234006 84 252 5.0 14.0 0.00 0.00 0.00 13 1002.3
20260902233452 84 167 4.0 9.0 0.00 0.00 0.00 13 1002.4
20260902232959 84 186 3.0 9.0 0.00 0.00 0.00 14 1002.4
20260902232442 84 255 4.0 10.0 0.00 0.00 0.00 13 1002.5
20260902231952 84 253 5.0 10.0 0.00 0.00 0.00 15 1002.5
20260902230827 84 258 4.0 15.0 0.00 0.00 0.00 14 1002.6
20260902230312 84 272 6.0 15.0 0.00 0.00 0.00 14 1002.6
20260902225755 85 277 6.0 15.0 0.00 0.00 0.00 13 1002.6
20260902225245 85 267 5.0 17.0 0.00 0.00 0.00 14 1002.5
20260902224114 86 216 7.0 18.0 0.00 0.00 0.00 14 1002.4
20260902223559 86 187 7.0 18.0 0.00 0.00 0.00 15 1002.4
20260902223051 85 208 5.0 20.0 0.00 0.00 0.00 15 1002.6
20260902222549 86 265 6.0 20.0 0.00 0.00 0.00 15 1002.6
20260902222039 86 174 7.0 20.0 0.00 0.00 0.00 15 1002.6
20260902221538 86 214 5.0 20.0 0.00 0.00 0.00 16 1002.5
20260902221038 87 213 3.0 16.0 0.00 0.00 0.00 16 1002.7
20260902215920 85 259 5.0 14.0 0.00 0.00 0.00 15 1002.9
20260902215421 85 272 5.0 14.0 0.00 0.00 0.00 14 1002.9
20260902213624 85 257 5.0 14.0 0.00 0.00 0.00 15 1003.0
20260902213120 85 216 5.0 21.0 0.00 0.00 0.00 17 1003.1